This is the latest recevied weather packets stored in our database for station/object YO8RBY-2. If no packets are shown the sender has not sent any weather packets the latest 1 day(s).
| Time | Temp. | Humidity | Pressure | Rain* | Wind** | Luminosity | Snow |
|---|---|---|---|---|---|---|---|
| 1836273988 | 20° C | 45% | 985 hPa | - | 0 m/s | 0 W/m² | - |
| 1778033571 | 15° C | 41% | 971 hPa | - | 0 m/s | 0 W/m² | - |
| 1778031746 | 13.89° C | 43% | 971 hPa | - | 0 m/s | 0 W/m² | - |
| 1778029922 | 13.89° C | 42% | 971 hPa | - | 0 m/s | 0 W/m² | - |
| 1778028098 | 14.44° C | 41% | 971 hPa | - | 0 m/s | 0 W/m² | - |
| 1778026274 | 14.44° C | 40% | 971 hPa | - | 0 m/s | 0 W/m² | - |
| 1778024450 | 15° C | 39% | 971 hPa | - | 0 m/s | 0 W/m² | - |
| 1778022626 | 15.56° C | 39% | 971 hPa | - | 0 m/s | 0 W/m² | - |
| 1778020801 | 16.11° C | 38% | 971 hPa | - | 0 m/s | 0 W/m² | - |
| 1778011681 | 18.33° C | 32% | 970 hPa | - | 0 m/s | 0 W/m² | - |
| 1778009857 | 19.44° C | 31% | 970 hPa | - | 0 m/s | 0 W/m² | - |
| 1778006208 | 22.22° C | 26% | 970 hPa | - | 0 m/s | 0 W/m² | - |
| 1778004384 | 24.44° C | 22% | 970 hPa | - | 0 m/s | 0 W/m² | - |
| 1778002560 | 29.44° C | 16% | 969 hPa | - | - | 0 W/m² | - |
| 1778000735 | 37.78° C | 11% | 969 hPa | - | - | 0 W/m² | - |
| 1777998911 | 62.22° C | 2% | 969 hPa | - | - | 0 W/m² | - |
| 1777997087 | 67.22° C | 100% | 969 hPa | - | - | 0 W/m² | - |
| 1777995263 | 65.56° C | 1% | 969 hPa | - | - | 0 W/m² | - |
| 1777993439 | 51.67° C | 5% | 969 hPa | - | - | 0 W/m² | - |
| 1777991615 | 43.89° C | 8% | 969 hPa | - | - | 0 W/m² | - |
| 1777989790 | 42.22° C | 10% | 969 hPa | - | - | 0 W/m² | - |
| 1777984318 | 37.78° C | 12% | 970 hPa | - | - | 0 W/m² | - |
| 1777980670 | 36.67° C | 13% | 971 hPa | - | - | 0 W/m² | - |
| 1777978912 | 35.56° C | 15% | 971 hPa | - | - | 0 W/m² | - |
| 1777976994 | 34.44° C | 16% | 971 hPa | - | - | 0 W/m² | - |
* Rain since midnight (hover to see other rain measurements)
** Current wind speed in m/s (hover to see current wind gust speed)